Cotulla, TX

1:11 AM CDT on May 30, 2017 (GMT -0500)
Cotulla-La Salle County

Weather History for KCOT - November, 2012

Change the Weather History Date:

Saturday, November 10, 2012

  Actual Average Record
Temperature  
Mean Temperature 72 °F -  
Max Temperature 82 °F 72 °F 90 °F (2006)
Min Temperature 62 °F 54 °F 37 °F (2011)
Cooling Degree Days 7    
Growing Degree Days 22 (Base 50)    
Moisture  
Dew Point 60 °F    
Average Humidity 64    
Maximum Humidity 93    
Minimum Humidity 39    
Precipitation  
Precipitation 0.00 in - - ()
Sea Level Pressure  
Sea Level Pressure 29.90 in    
Wind  
Wind Speed 10 mph (SE)    
Max Wind Speed 16 mph    
Max Gust Speed 25 mph    
Visibility 10 miles    
Events      
Averages and records for this station are not official NWS values.
T = Trace of Precipitation, MM = Missing Value Source: NWS Daily Summary

Daily Weather History Graph

Daily Weather History Graph

Search for Another Location

Airport or City:

Trip Planner

Search our weather history database for the weather conditions in past years. The results will help you decide how hot, cold, wet, or windy it might be!

Date:

Astronomy

Nov. 10, 2012 Rise Set
Actual Time 6:55 AM CST 5:45 PM CST
Civil Twilight 6:31 AM CST 6:10 PM CST
Nautical Twilight 6:02 AM CST 6:38 PM CST
Astronomical Twilight 5:34 AM CST 7:06 PM CST
Moon 3:18 AM CST (11/10) 3:19 PM CST (11/10)
Length of Visible Light 11h 39m
Length of Day
10h 49m
Waning Crescent, 14% of the Moon is Illuminated
Nov 10
Waning Crescent
Nov 13
New
Nov 20
First Quarter
Nov 28
Full
Dec 6
Last Quarter

Hourly Weather History & Observations

Time (CST) Temp. Heat Index Dew Point Humidity Pressure Visibility Wind Dir Wind Speed Gust Speed Precip Events Conditions
12:53 AM 69.1 °F - 62.1 °F 78% 29.97 in 10.0 mi SE 10.4 mph - N/A   Clear
1:53 AM 68.0 °F - 62.1 °F 81% 29.95 in 10.0 mi SE 9.2 mph - N/A   Clear
2:53 AM 66.9 °F - 61.0 °F 81% 29.95 in 10.0 mi SE 6.9 mph - N/A   Clear
3:53 AM 64.0 °F - 60.1 °F 87% 29.95 in 10.0 mi East 5.8 mph - N/A   Clear
4:53 AM 63.0 °F - 60.1 °F 90% 29.95 in 10.0 mi East 4.6 mph - N/A   Clear
5:53 AM 63.0 °F - 60.1 °F 90% 29.95 in 10.0 mi East 5.8 mph - N/A   Clear
6:53 AM 62.1 °F - 60.1 °F 93% 29.96 in 10.0 mi East 5.8 mph - N/A   Clear
7:53 AM 66.0 °F - 61.0 °F 84% 29.98 in 10.0 mi ESE 6.9 mph - N/A   Clear
8:53 AM 70.0 °F - 61.0 °F 73% 29.98 in 10.0 mi SE 10.4 mph - N/A   Clear
9:53 AM 73.0 °F - 62.1 °F 68% 29.99 in 10.0 mi SSE 12.7 mph 20.7 mph N/A   Clear
10:53 AM 78.1 °F - 61.0 °F 56% 29.96 in 10.0 mi South 15.0 mph 24.2 mph N/A   Clear
11:53 AM 79.0 °F - 59.0 °F 50% 29.94 in 10.0 mi SSE 11.5 mph 24.2 mph N/A   Clear
12:53 PM 81.0 °F 80.8 °F 55.9 °F 42% 29.91 in 10.0 mi South 16.1 mph 23.0 mph N/A   Clear
1:53 PM 82.9 °F 82.4 °F 57.0 °F 41% 29.87 in 10.0 mi South 11.5 mph 23.0 mph N/A   Clear
2:53 PM 82.9 °F 82.4 °F 57.0 °F 41% 29.85 in 10.0 mi SSE 11.5 mph 23.0 mph N/A   Clear
3:53 PM 82.9 °F 82.1 °F 55.9 °F 39% 29.83 in 10.0 mi SSE 10.4 mph 23.0 mph N/A   Clear
4:53 PM 82.0 °F 81.7 °F 57.0 °F 42% 29.82 in 10.0 mi SSE 13.8 mph 20.7 mph N/A   Clear
5:53 PM 81.0 °F 80.8 °F 55.9 °F 42% 29.81 in 10.0 mi SE 10.4 mph - N/A   Clear
6:53 PM 81.0 °F 81.0 °F 57.0 °F 44% 29.83 in 10.0 mi SE 11.5 mph 21.9 mph N/A   Clear
7:53 PM 80.1 °F 80.7 °F 59.0 °F 48% 29.85 in 10.0 mi SSE 13.8 mph 25.3 mph N/A   Clear
8:53 PM 78.1 °F - 61.0 °F 56% 29.86 in 10.0 mi SSE 12.7 mph 20.7 mph N/A   Clear
9:53 PM 75.2 °F - 64.4 °F 69% 29.87 in 10.0 mi SE 15.0 mph 21.9 mph N/A   Clear
10:53 PM 73.9 °F - 64.0 °F 71% 29.84 in 10.0 mi SSE 15.0 mph 21.9 mph N/A   Clear
11:53 PM 73.9 °F - 64.9 °F 73% 29.83 in 10.0 mi SSE 16.1 mph 25.3 mph N/A   Clear